This demonstration page uses our WeatherBlox Daily Observations layout. Learn more.

Left ArrowRight Arrow

41.86663, -103.66717

Hourly Observations for September 14, 2015

Temp ( °F °C ) Dew Point ( °F °C ) Humidity (%) Winds ( mph kmh ) Pressure ( in mb ) Visibility ( mi km ) Precip ( " mm )
12:53 am 00:53 Clear 58 14.4 42 5.6 56 56 NW 10 17 29.62 1003 10 16 N/A
1:53 am 01:53 Clear 51 10.6 43 6.1 74 74 WNW 20 31 29.62 1003 10 16 N/A
2:53 am 02:53 Clear 50 10 42 5.6 74 74 NNE 7 11 29.61 1003 10 16 N/A
3:53 am 03:53 Clear 47 8.3 40 4.4 77 77 NNW 6 9 29.62 1003 10 16 N/A
4:53 am 04:53 Clear 47 8.3 41 5 80 80 undefined N/A 29.63 1003 10 16 N/A
5:53 am 05:53 Clear 47 8.3 40 4.4 77 77 NNW 7 11 29.64 1004 10 16 N/A
6:53 am 06:53 Sunny 47 8.3 42 5.6 83 83 VRB 7 11 29.68 1005 10 16 N/A
7:53 am 07:53 Sunny 54 12.2 43 6.1 67 67 NW 9 15 29.68 1005 10 16 N/A
8:53 am 08:53 Sunny 61 16.1 44 6.7 54 54 NW 8 13 29.71 1006 8 13 N/A
9:53 am 09:53 Sunny 73 22.8 39 3.9 29 29 NW 10 17 29.68 1005 10 16 N/A
10:53 am 10:53 Sunny 80 26.7 41 5 25 25 NW 17 28 29.68 1005 10 16 N/A
11:53 am 11:53 Sunny 85 29.4 39 3.9 20 20 WNW 17 28 29.66 1004 10 16 N/A
12:53 pm 12:53 Sunny 88 31.1 38 3.3 17 17 WNW 12 19 29.64 1004 8 13 N/A
1:53 pm 13:53 Sunny 91 32.8 37 2.8 15 15 WNW 18 30 29.64 1004 10 16 N/A
2:53 pm 14:53 Sunny 93 33.9 35 1.7 13 13 WNW 17 28 29.62 1003 10 16 N/A
3:53 pm 15:53 Sunny 93 33.9 32 undefined 11 11 WNW 17 28 29.62 1003 10 16 N/A
4:53 pm 16:53 Sunny 89 31.7 42 5.6 19 19 WNW 15 24 29.62 1003 9 14 N/A
5:53 pm 17:53 Sunny 83 28.3 54 12.2 37 37 E 9 15 29.63 1003 7 11 N/A
6:53 pm 18:53 Sunny 79 26.1 52 11.1 39 39 NW 13 20 29.63 1004 7 11 N/A
7:53 pm 19:53 Hazy 70 21.1 53 11.7 55 55 WNW 15 24 29.65 1004 6 10 N/A
8:53 pm 20:53 Clear 71 21.7 48 8.9 44 44 NNE 7 11 29.64 1004 8 13 N/A
9:20 pm 21:20 Clear 68 20 48 9 49 49 WNW 15 24 29.56 1001 7 11 N/A
9:53 pm 21:53 Clear 65 18.3 49 9.4 56 56 NW 16 26 29.63 1004 8 13 N/A
10:53 pm 22:53 Clear 63 17.2 48 8.9 58 58 ENE 8 13 29.65 1004 9 14 N/A
11:38 pm 23:38 Clear 64 18 48 9 56 56 NW 15 24 29.65 1004 10 16 N/A
11:53 pm 23:53 Clear 63 17.2 49 9.4 60 60 NW 21 33 29.65 1004 9 14 N/A

Powered by AerisWeather